Location: Antoign�
(47.0844°N, 0.1131°W)
Time: 23:59:35
(UTC+00:00)

DMSP B5D1-3 - Pass Details

Date: 03 March 2021
Orbit: 767 x 780 km, 98.5° (Epoch: 20 April)

Event Time Altitude Azimuth Distance (km) Brightness Sun altitude
Rises 18:47:01 0° 16° (NNE) 3,274 7.6 -10.7°
Reaches altitude 10° 18:49:22 10° 18° (NNE) 2,343 6.9 -11.1°
Maximum altitude 18:54:31 70° 103° (ESE) 831 4.5 -12.0°
Drops below altitude 10° 18:59:39 10° 187° (S) 2,328 7.0 -12.8°
Sets 19:01:58 0° 190° (S) 3,252 7.8 -13.2°
